Location: Proctor
(47.8934°N, 114.3048°W)
Time: 20:23:09
(UTC+00:00)

Courier 1B Rocket - Visible Passes

Search period start: 23 June 2024 00:00
Search period end: 03 July 2024 00:00
Orbit: 920 x 1201 km, 28.2° (Epoch: 22 June)

Date Brightness Start Highest point End Pass type
(mag) Time Alt. Az. Time Alt. Az. Time Alt. Az.
23 Jun 6.9 10:04:00 10° S 10:05:53 11° SSE 10:07:48 10° SSE visible
24 Jun 6.8 10:54:00 10° SSW 10:57:11 14° S 11:00:27 10° SSE visible
25 Jun 6.7 09:55:16 12° S 09:56:26 12° S 09:59:01 10° SSE visible
26 Jun 6.7 10:44:49 10° SSW 10:47:45 13° S 10:50:45 10° SSE visible
27 Jun 6.7 09:46:51 13° S 09:47:00 13° S 09:49:44 10° SSE visible
28 Jun 6.7 10:36:05 10° SSW 10:38:20 12° S 10:40:37 10° SSE visible
29 Jun 6.8 09:38:52 12° S 09:38:52 12° S 09:40:04 10° SSE visible
